Location: Newark
(43.0000°N, 1.6781°W)
Time: 10:14:22
(UTC+00:00)

AO-7 - Pass Details

Date: 10 December 2022
Orbit: 1440 x 1459 km, 101.9° (Epoch: 28 January)

Event Time Altitude Azimuth Distance (km) Brightness Sun altitude
Rises 05:29:05 0° 15° (NNE) 4,546 ? -20.7°
Reaches altitude 10° 05:31:52 10° 13° (NNE) 3,566 ? -20.3°
Maximum altitude 05:40:05 68° 294° (WNW) 1,546 ? -18.8°
Drops below altitude 10° 05:48:17 10° 214° (SSW) 3,561 ? -17.3°
Sets 05:51:04 0° 211° (SSW) 4,538 ? -16.9°
